Location: Unspecified
(0.0000°N, 0.0000°E)
Time: 11:18:47
(UTC+00:00)

A-11 Canister half - Pass Details

Date: 22 November 2019
Orbit: 1526 x 1683 km, 47.3° (Epoch: 13 December)

Event Time Altitude Azimuth Distance (km) Brightness Sun altitude
Rises 19:58:45 0° 315° (NW) 4,696 11.8 -30.9°
Reaches altitude 10° 20:01:49 10° 313° (NW) 3,702 11.2 -31.6°
Maximum altitude 20:11:04 71° 231° (SW) 1,595 9.0 -33.7°
Drops below altitude 10° 20:20:20 10° 148° (SSE) 3,703 10.9 -35.8°
Sets 20:23:25 0° 145° (SE) 4,697 11.5 -36.5°
